Regional Weather Roundup
Issued by NWS

Home | Current Version | Previous Version | Graphics & Text | Print | Product List | Glossary On
Versions: 1 2 3 4 5 6 7 8 9 10 11 12 13 14 15 16 17 18 19 20 21 22 23 24 25 26 27 28 29 30 31 32 33 34 35 36 37 38 39 40 41 42 43 44 45 46 47 48 49 50
000
ASUS43 KDTX 300601
RWRMI
MICHIGAN HOURLY REGIONAL WEATHER ROUNDUP
NATIONAL WEATHER SERVICE DETROIT/PONTIAC MI
200 AM EDT SAT AUG 30 2014

NOTE: "FAIR" INDICATES FEW OR NO CLOUDS BELOW 12,000 FEET WITH NO
SIGNIFICANT WEATHER AND/OR OBSTRUCTION TO VISIBILITY.

MIZ047>049-052>055-059>063-066>070-074>076-081>083-300700-
SOUTHEAST LOWER MICHIGAN

CITY           SKY/WX    TMP DP  RH WIND       PRES   REMARKS
ADRIAN         FAIR      68  63  84 S6        30.01F
6HR MIN TEMP:  67; 6HR MAX TEMP:  73;

ALMA           FAIR      68  63  84 S5        29.95F
ANN ARBOR      FAIR      68  62  81 CALM      30.01F
BAD AXE        CLOUDY    64  59  83 S10       30.00F
6HR MIN TEMP:  64; 6HR MAX TEMP:  68;

CARO           FAIR      67  59  75 SE6       29.98F
DETROIT CITY   FAIR      72  62  71 S5        30.02F
6HR MIN TEMP:  70; 6HR MAX TEMP:  73;

DETROIT        MOCLDY    71  64  78 SE3       30.02F
6HR MIN TEMP:  69; 6HR MAX TEMP:  73;

FLINT          FAIR      71  60  68 S9        29.98F
6HR MIN TEMP:  70; 6HR MAX TEMP:  73;

GROSSE ILE     FAIR      73  66  78 S8        30.01F
HILLSDALE      FAIR      70  65  84 SE5       30.01F
HOWELL         FAIR      67  63  86 SE7       30.00F
6HR MIN TEMP:  67; 6HR MAX TEMP:  71;


CITY           SKY/WX    TMP DP  RH WIND       PRES   REMARKS
JACKSON        FAIR      69  62  78 S7        29.99F
6HR MIN TEMP:  68; 6HR MAX TEMP:  75;

LAMBERTVILLE   FAIR      72  61  68 S8        30.02S
LANSING        FAIR      70  62  76 S12       29.97F
6HR MIN TEMP:  70; 6HR MAX TEMP:  74; 6HR PCP: TRACE;

LAPEER         FAIR      67  59  74 S6        30.01F
MASON          FAIR      68  62  82 SE10      29.98F
MONROE         FAIR      72  63  73 S7        30.00F
MT. CLEMENS    MOCLDY    69  64  84 S6        30.01F
6HR MIN TEMP:  68; 6HR MAX TEMP:  70;

PONTIAC        FAIR      68  60  75 SE7       30.01F
6HR MIN TEMP:  68; 6HR MAX TEMP:  73;

PORT HOPE        N/A     66  57  72 S5        29.98S
6HR MIN TEMP:  66; 6HR MAX TEMP:  70;

PORT HURON     MOCLDY    66  63  88 SE5       30.02F
TRI CITIES     FAIR      70  59  68 S12       29.96F
6HR MIN TEMP:  70; 6HR MAX TEMP:  72;

TROY           FAIR      69  62  78 CALM      30.04F
SAGINAW HB     FAIR      68  57  68 S7        29.96F
$$
MIZ043>046-050>051-056>058-064>065-071>073-077>080-300700-
SOUTHWEST LOWER MICHIGAN

CITY           SKY/WX    TMP DP  RH WIND       PRES   REMARKS
BATTLE CREEK   FAIR      73  66  78 S9        29.97F
6HR MIN TEMP:  72; 6HR MAX TEMP:  77;

BENTON HARBOR  FAIR      70  66  87 SE8       29.91F
6HR MIN TEMP:  69; 6HR MAX TEMP:  76; 6HR PCP:  0.02;

BIG RAPIDS     FAIR      70  68  94 SE9       29.92S
6HR MIN TEMP:  70; 6HR MAX TEMP:  71;

COLDWATER      FAIR      74  65  73 S7        29.98F
6HR MIN TEMP:  74; 6HR MAX TEMP:  78;

FREMONT        CLOUDY    72  68  88 S8        29.89F
HOLLAND        FAIR      73  66  78 S12       29.92S
6HR MIN TEMP:  73; 6HR MAX TEMP:  77;

GRAND RAPIDS   FAIR      73  71  93 S14       29.93F
6HR MIN TEMP:  72; 6HR MAX TEMP:  75; 6HR PCP: TRACE;

IONIA          FAIR      71  66  85 S8        29.95F
KALAMAZOO      FAIR      71  68  90 S3        29.96F
6HR MIN TEMP:  71; 6HR MAX TEMP:  76; 6HR PCP:  0.02;

LUDINGTON      FAIR      74  71  88 S12G20    29.87S
6HR MIN TEMP:  74; 6HR MAX TEMP:  74;

MARSHALL       FAIR      71  65  81 SW3       29.98F
MOUNT PLEASANT FAIR      69  63  81 SE7       29.94F
6HR MIN TEMP:  69; 6HR MAX TEMP:  72;

MUSKEGON       FAIR      76  66  71 S13       29.88F
6HR MIN TEMP:  73; 6HR MAX TEMP:  77; 6HR PCP:  0.02;

SOUTH HAVEN    FAIR      71  66  84 S5        29.92S
$$
MIZ016>042-300700-
NORTHERN LOWER MICHIGAN

CITY           SKY/WX    TMP DP  RH WIND       PRES   REMARKS
ALPENA         LGT RAIN  66  61  84 SW9       29.94R
6HR MIN TEMP:  66; 6HR MAX TEMP:  68; 6HR PCP:  0.02;

BEAVER ISLAND  MOCLDY    70  68  94 S7        29.84F
BELLAIRE       FAIR      72  66  83 S9        29.86F
6HR MIN TEMP:  70; 6HR MAX TEMP:  72;

CADILLAC       FAIR      70  67  90 S9        29.92F
CHARLEVOIX     FAIR      72  67  86 S9        29.88F
6HR MIN TEMP:  71; 6HR MAX TEMP:  73;

FRANKFORT      FAIR      75  68  77 S13G22    29.85S
GAYLORD        CLOUDY    66  64  93 S9        29.92F
6HR MIN TEMP:  66; 6HR MAX TEMP:  68; 6HR PCP:  0.02;

GRAYLING       CLOUDY    69  65  88 CALM      29.94F
6HR MIN TEMP:  69; 6HR MAX TEMP:  69;

HARBOR SPRINGS FAIR      71  66  85 N3        29.86F
HOUGHTON LAKE  MOCLDY    67  63  87 S6        29.95S
6HR MIN TEMP:  67; 6HR MAX TEMP:  69; 6HR PCP:  0.01;

MANISTEE       FAIR      73  66  78 S8        29.87S
OSCODA         MOCLDY    68  59  72 SW9       29.96S
PELLSTON       FAIR      67  65  93 CALM      29.87F
6HR MIN TEMP:  66; 6HR MAX TEMP:  72; 6HR PCP:  0.60;

ROGERS CITY    LGT RAIN  66  63  88 S13G21    29.90F
TRAVERSE CITY  FAIR      73  67  81 VRB6      29.84F
6HR MIN TEMP:  73; 6HR MAX TEMP:  74; 6HR PCP: TRACE;

$$
MIZ007>008-015-300700-
EASTERN UPPER MICHIGAN

CITY           SKY/WX    TMP DP  RH WIND       PRES   REMARKS
KINROSS        CLOUDY    66  66 100 S10       29.85F
6HR MIN TEMP:  63; 6HR MAX TEMP:  66; 6HR PCP:  0.11;

MACKINAC ISLAN MOCLDY    66  65  95 S10       29.86F
6HR MIN TEMP:  63; 6HR MAX TEMP:  68;

NEWBERRY       LGT RAIN  65  64  97 SW7       29.83F
S. S. MARIE    CLOUDY    64  62  93 E5        29.86F FOG
6HR MIN TEMP:  60; 6HR MAX TEMP:  64; 6HR PCP:  0.13;

$$
MIZ004>006-011>014-085-300700-
CENTRAL UPPER MICHIGAN

CITY           SKY/WX    TMP DP  RH WIND       PRES   REMARKS
MANISTIQUE     HVY RAIN  69  68  99 SW12G18   29.83F
ESCANABA       FAIR      64  63  94 SE7       29.81F
6HR MIN TEMP:  64; 6HR MAX TEMP:  70; 6HR PCP:  0.01;

MENOMINEE      FAIR      70  66  88 SE6       29.79F
6HR MIN TEMP:  70; 6HR MAX TEMP:  73;

SAWYER-GWINN   FAIR      64  63  96 SW7       29.83R
$$
MIZ001>003-009>011-084-300700-
WESTERN UPPER MICHIGAN

CITY           SKY/WX    TMP DP  RH WIND       PRES   REMARKS
IRON MOUNTAIN  LGT RAIN  65  64  97 CALM      29.83R
6HR MIN TEMP:  65; 6HR MAX TEMP:  70; 6HR PCP:  0.09;

HOUGHTON       CLOUDY    64  63  96 CALM      29.77S
6HR MIN TEMP:  61; 6HR MAX TEMP:  64; 6HR PCP:  0.04;

COPPER HARBOR    N/A     60  58  92 N10       29.76R
6HR MIN TEMP:  60; 6HR MAX TEMP:  66; 6HR PCP:  0.02;

$$

ABBREVIATIONS USED IN REMARKS
   TC - TEMPERATURE IN CELSIUS
  WCI - WIND CHILL INDEX
   HX - HEAT INDEX
  VSB - VISIBILITY




USA.gov is the U.S. government's official web portal to all federal, state and local government web resources and services.